sat.trackr.live / text

‹ back to catalog

HULIANWANG DIGUI-16

NORAD 62976 · 2025-030F

PAYLOAD ACTIVE UNKNOWN

§ Identity

Operator
Country
PRC
Launch date
2025-02-11
Launch site
WSC
Launch vehicle
Mass (kg)
RCS (m²)

External: N2YO · Heavens-Above · Gunter

§ Orbital elements

Epoch: 2026-09-22T22:14:45.700512Z

Period
108.33 min
Inclination
50.0038°
Eccentricity
0.0000483
Mean motion
13.29328419 rev/d
Perigee alt
1,148.9 km
Apogee alt
1,149.7 km
Semi-major
7,527.4 km
B*
5.5266e-5
RAAN
245.0766°
Arg perigee
34.2141°
Mean anomaly
325.8763°
Rev number
7,886

§ Raw data

HULIANWANG DIGUI-161 62976U 25030F   26265.92691783 -.00000098  00000+0  55266-4 0  99912 62976  50.0038 245.0766 0000483  34.2141 325.8763 13.29328419 78863

JSON: /api/v1/satellites/62976 · /tle

For live sub-satellite position, see the globe view (requires WebGL).

§ Visibility from observer

Set your observer location to see the next 7 days of passes ≥ 10°. The values pass through the URL so the page stays shareable.

No JS? Fill the form by hand. The geolocation button needs JavaScript.